TimeEDT,TemperatureF,Dew PointF,Humidity,Sea Level PressureIn,VisibilityMPH,Wind Direction,Wind SpeedMPH,Gust SpeedMPH,PrecipitationIn,Events,Conditions,WindDirDegrees,DateUTC
12:53 AM,77.0,73.9,90,30.04,10.0,South,4.6,-,N/A,,Partly Cloudy,190,2013-08-24 04:53:00
1:53 AM,78.1,73.0,84,30.04,10.0,Calm,Calm,-,N/A,,Partly Cloudy,0,2013-08-24 05:53:00
2:53 AM,77.0,69.1,76,30.04,10.0,Variable,3.5,-,N/A,,Partly Cloudy,0,2013-08-24 06:53:00
3:53 AM,75.0,70.0,84,30.07,10.0,Calm,Calm,-,0.00,,Scattered Clouds,0,2013-08-24 07:53:00
4:34 AM,73.4,69.8,88,30.09,10.0,Variable,5.8,-,N/A,,Mostly Cloudy,0,2013-08-24 08:34:00
4:53 AM,73.9,69.1,85,30.09,10.0,Variable,3.5,-,N/A,,Overcast,0,2013-08-24 08:53:00
5:53 AM,73.0,68.0,84,30.10,10.0,Variable,3.5,-,N/A,,Mostly Cloudy,0,2013-08-24 09:53:00
6:53 AM,73.0,66.9,81,30.13,10.0,Variable,4.6,-,N/A,,Overcast,0,2013-08-24 10:53:00
7:53 AM,72.0,66.9,84,30.16,10.0,Variable,4.6,-,N/A,,Overcast,0,2013-08-24 11:53:00
8:53 AM,71.1,66.0,84,30.18,10.0,Variable,3.5,-,N/A,,Overcast,0,2013-08-24 12:53:00
9:53 AM,72.0,66.0,81,30.20,9.0,NNE,6.9,-,N/A,,Overcast,30,2013-08-24 13:53:00
10:24 AM,73.4,66.2,78,30.21,10.0,Calm,Calm,-,N/A,,Overcast,0,2013-08-24 14:24:00
10:53 AM,75.0,66.0,73,30.22,10.0,Variable,4.6,-,N/A,,Overcast,0,2013-08-24 14:53:00
11:53 AM,75.9,66.0,71,30.22,10.0,Variable,5.8,-,N/A,,Overcast,0,2013-08-24 15:53:00
12:42 PM,78.8,66.2,65,30.22,10.0,ENE,4.6,-,N/A,,Overcast,70,2013-08-24 16:42:00
12:53 PM,77.0,66.0,69,30.22,10.0,ENE,4.6,-,N/A,,Overcast,70,2013-08-24 16:53:00
1:23 PM,78.8,66.2,65,30.22,10.0,Variable,3.5,-,N/A,,Overcast,0,2013-08-24 17:23:00
1:53 PM,79.0,66.9,66,30.21,10.0,Variable,3.5,-,N/A,,Overcast,0,2013-08-24 17:53:00
2:53 PM,81.0,64.9,58,30.21,10.0,Variable,4.6,-,N/A,,Overcast,0,2013-08-24 18:53:00
3:53 PM,82.9,66.0,56,30.20,10.0,East,3.5,-,N/A,,Mostly Cloudy,90,2013-08-24 19:53:00
4:53 PM,82.9,66.0,56,30.19,10.0,Calm,Calm,-,N/A,,Mostly Cloudy,0,2013-08-24 20:53:00
5:53 PM,84.0,64.9,53,30.18,10.0,ENE,5.8,-,N/A,,Scattered Clouds,70,2013-08-24 21:53:00
6:53 PM,82.9,66.0,56,30.18,10.0,Variable,3.5,-,N/A,,Mostly Cloudy,0,2013-08-24 22:53:00
7:53 PM,78.1,68.0,71,30.19,10.0,Calm,Calm,-,N/A,,Scattered Clouds,0,2013-08-24 23:53:00
8:53 PM,79.0,64.0,60,30.22,10.0,Variable,3.5,-,N/A,,Mostly Cloudy,0,2013-08-25 00:53:00
9:53 PM,75.9,63.0,64,30.24,10.0,Variable,3.5,-,N/A,,Clear,0,2013-08-25 01:53:00
10:53 PM,73.9,64.0,71,30.25,10.0,Calm,Calm,-,N/A,,Clear,0,2013-08-25 02:53:00
11:53 PM,72.0,64.0,76,30.27,10.0,Calm,Calm,-,N/A,,Clear,0,2013-08-25 03:53:00